Weather History for Anchialos, Greece

Change the Weather History Date:

Sunday, October 30, 2011

  Actual Average Record
Temperature  
Mean Temperature 53 °F -  
Max Temperature 60 °F - - ()
Min Temperature 46 °F - - ()
Degree Days  
Heating Degree Days 12    
Growing Degree Days 3 (Base 50)    
Moisture  
Dew Point 43 °F    
Average Humidity 68    
Maximum Humidity 87    
Minimum Humidity 48    
Precipitation  
Precipitation 0.00 in - - ()
Sea Level Pressure  
Sea Level Pressure 30.28 in    
Wind  
Wind Speed 6 mph ()    
Max Wind Speed 9 mph    
Max Gust Speed -    
Visibility 6.2 miles    
Events      
T = Trace of Precipitation, MM = Missing Value Source: Averaged Metar Reports

Daily Weather History Graph

Daily Weather History Graph

Search for Another Location

Airport:

Trip Planner

Search our weather history database for the weather conditions in past years. The results will help you decide how hot, cold, wet, or windy it might be!

Date:

Astronomy

Oct. 30, 2011 Rise Set
Actual Time 6:53 AM EET 5:30 PM EET
Civil Twilight 6:26 AM EET 5:58 PM EET
Nautical Twilight 5:54 AM EET 6:29 PM EET
Astronomical Twilight 5:23 AM EET 7:00 PM EET
Moon 10:54 AM EET (10/30) 8:40 PM EET (10/30)
Length of Visible Light 11h 32m
Length of Day
10h 36m
Waxing Crescent, 18% of the Moon is Illuminated
Oct 30
Waxing Crescent
Nov 2
First Quarter
Nov 10
Full
Nov 18
Last Quarter
Nov 25
New

Hourly Weather History & Observations

Time (EET) Temp. Windchill Dew Point Humidity Pressure Visibility Wind Dir Wind Speed Gust Speed Precip Events Conditions
12:50 AM 46.4 °F 41.9 °F 42.8 °F 87% 30.33 in - West 9.2 mph - N/A   Clear
1:50 AM 46.4 °F 42.4 °F 42.8 °F 87% 30.33 in - West 8.1 mph - N/A   Clear
2:50 AM 50.0 °F - 44.6 °F 82% 30.30 in - West 6.9 mph - N/A   Clear
3:50 AM 48.2 °F - 42.8 °F 82% 30.30 in - West 5.8 mph - N/A   Clear
3:50 AM 50.0 °F - 42.8 °F 76% 30.27 in - West 8.1 mph - N/A   Clear
4:50 AM 51.8 °F - 44.6 °F 76% 30.30 in - West 8.1 mph - N/A   Clear
5:20 AM 51.8 °F - 44.6 °F 76% 30.30 in - WNW 6.9 mph - N/A   Clear
5:50 AM 51.8 °F - 42.8 °F 71% 30.30 in - West 8.1 mph - N/A   Clear
6:20 AM 50.0 °F - 44.6 °F 82% 30.30 in - West 6.9 mph - N/A   Scattered Clouds
6:50 AM 50.0 °F - 42.8 °F 76% 30.27 in 6.2 mi WNW 6.9 mph - N/A   Scattered Clouds
7:20 AM 50.0 °F - 44.6 °F 82% 30.30 in - WNW 4.6 mph - N/A   Scattered Clouds
7:50 AM 50.0 °F - 44.6 °F 82% 30.30 in 6.2 mi NW 4.6 mph - N/A   Mostly Cloudy
8:20 AM 51.8 °F - 44.6 °F 76% 30.30 in 6.2 mi NW 6.9 mph - N/A   Mostly Cloudy
8:50 AM 51.8 °F - 44.6 °F 76% 30.30 in 6.2 mi NW 6.9 mph - N/A   Mostly Cloudy
9:20 AM 53.6 °F - 46.4 °F 77% 30.30 in 6.2 mi WNW 5.8 mph - N/A   Mostly Cloudy
9:50 AM 55.4 °F - 46.4 °F 72% 30.30 in 6.2 mi WNW 4.6 mph - N/A   Mostly Cloudy
10:20 AM 59.0 °F - 48.2 °F 67% 30.30 in 6.2 mi West 6.9 mph - N/A   Mostly Cloudy
10:50 AM 59.0 °F - 41.0 °F 51% 30.30 in 6.2 mi Calm Calm - N/A   Mostly Cloudy
11:20 AM 59.0 °F - 41.0 °F 51% 30.30 in 6.2 mi NNW 8.1 mph - N/A   Mostly Cloudy
11:50 AM 59.0 °F - 42.8 °F 55% 30.30 in 6.2 mi NW 9.2 mph - N/A   Mostly Cloudy
12:20 PM 60.8 °F - 42.8 °F 52% 30.30 in 6.2 mi North 6.9 mph - N/A   Mostly Cloudy
12:50 PM 60.8 °F - 41.0 °F 48% 30.27 in 6.2 mi North 8.1 mph - N/A   Mostly Cloudy
1:20 PM 60.8 °F - 44.6 °F 55% 30.27 in 6.2 mi NNE 6.9 mph - N/A   Mostly Cloudy
1:50 PM 60.8 °F - 42.8 °F 52% 30.27 in 6.2 mi NNW 8.1 mph - N/A   Scattered Clouds
2:20 PM 60.8 °F - 42.8 °F 52% 30.27 in 6.2 mi NNW 8.1 mph - N/A   Scattered Clouds
2:50 PM 60.8 °F - 41.0 °F 48% 30.27 in 6.2 mi North 5.8 mph - N/A   Scattered Clouds
3:20 PM 60.8 °F - 44.6 °F 55% 30.24 in 6.2 mi Calm Calm - N/A   Mostly Cloudy
3:50 PM 59.0 °F - 39.2 °F 48% 30.24 in 6.2 mi NW 5.8 mph - N/A   Mostly Cloudy
4:20 PM 59.0 °F - 39.2 °F 48% 30.24 in 6.2 mi NW 4.6 mph - N/A   Mostly Cloudy
4:50 PM 59.0 °F - 41.0 °F 51% 30.24 in 6.2 mi WNW 4.6 mph - N/A   Mostly Cloudy
5:20 PM 55.4 °F - 41.0 °F 58% 30.24 in 6.2 mi Calm Calm - N/A   Scattered Clouds
5:50 PM 53.6 °F - 41.0 °F 62% 30.24 in 6.2 mi WNW 4.6 mph - N/A   Scattered Clouds
6:20 PM 51.8 °F - 41.0 °F 67% 30.24 in 6.2 mi WNW 5.8 mph - N/A   Scattered Clouds
6:50 PM 50.0 °F - 41.0 °F 71% 30.24 in 6.2 mi WNW 5.8 mph - N/A   Scattered Clouds
7:20 PM 48.2 °F - 41.0 °F 76% 30.27 in 6.2 mi WSW 6.9 mph - N/A   Scattered Clouds
7:50 PM 48.2 °F - 42.8 °F 82% 30.27 in 6.2 mi WSW 5.8 mph - N/A   Scattered Clouds
8:50 PM 46.4 °F 42.9 °F 41.0 °F 81% 30.27 in 6.2 mi West 6.9 mph - N/A   Scattered Clouds
9:50 PM 46.4 °F 42.9 °F 41.0 °F 81% 30.27 in 6.2 mi West 6.9 mph - N/A   Scattered Clouds
10:50 PM 48.2 °F - 41.0 °F 76% 30.27 in 6.2 mi West 8.1 mph - N/A   Scattered Clouds